Weather History for Kimball, NE

Change the Weather History Date:

Wednesday, July 2, 2014

  Actual Average (KSNY) Record (KSNY)
Temperature  
Mean Temperature 61 °F 73 °F  
Max Temperature 77 °F 89 °F 103 °F (2012)
Min Temperature 45 °F 58 °F 45 °F (1972)
Degree Days  
Heating Degree Days 4 0  
Month to date heating degree days 0  
Since 1 June heating degree days 59  
Since 1 July heating degree days 0  
Cooling Degree Days 0 9  
Month to date cooling degree days 17  
Year to date cooling degree days 176  
Since 1 June cooling degree days 154  
Growing Degree Days 11 (Base 50)    
Moisture  
Dew Point 44 °F    
Average Humidity 56    
Maximum Humidity 87    
Minimum Humidity 27    
Precipitation  
Precipitation 0.00 in 0.10 in 1.50 in (1958)
Month to date precipitation 0.19  
Year to date precipitation 10.13  
Sea Level Pressure  
Sea Level Pressure 30.26 in    
Wind  
Wind Speed 6 mph (South)    
Max Wind Speed 16 mph    
Max Gust Speed 22 mph    
Visibility 10 miles    
Events Rain    
T = Trace of Precipitation, MM = Missing Value Source: NWS Daily Summary

Daily Weather History Graph

Daily Weather History Graph

Search for Another Location

Airport:

Trip Planner

Search our weather history database for the weather conditions in past years. The results will help you decide how hot, cold, wet, or windy it might be!

Date:

Astronomy

Jul. 02, 2014 Rise Set
Actual Time 6:26 AM CDT 9:31 PM CDT
Civil Twilight 5:52 AM CDT 10:04 PM CDT
Nautical Twilight 5:09 AM CDT 10:47 PM CDT
Astronomical Twilight 4:19 AM CDT 11:37 PM CDT
Moon 11:34 AM CDT (7/2) No Moon Set
Length of Visible Light 16h 11m
Length of Day
15h 04m
Waxing Crescent, 24% of the Moon is Illuminated
Jul 2
Waxing Crescent
Jul 5
First Quarter
Jul 12
Full
Jul 18
Last Quarter
Jul 26
New

Hourly Weather History & Observations

Time (CDT) Temp. Dew Point Humidity Pressure Visibility Wind Dir Wind Speed Gust Speed Precip Events Conditions
12:15 AM 59.4 °F 46.6 °F 63% 30.28 in 10.0 mi ENE 9.2 mph - N/A Rain Light Rain
12:35 AM 58.1 °F 46.6 °F 65% 30.28 in 10.0 mi ENE 6.9 mph - N/A   Mostly Cloudy
12:55 AM 57.2 °F 46.0 °F 66% 30.30 in 10.0 mi ENE 6.9 mph - N/A   Overcast
1:15 AM 55.9 °F 45.0 °F 67% 30.30 in 10.0 mi ENE 4.6 mph - N/A   Scattered Clouds
1:35 AM 52.9 °F 45.5 °F 76% 30.29 in 10.0 mi Calm Calm - N/A   Clear
1:55 AM 53.2 °F 45.9 °F 76% 30.28 in 10.0 mi Calm Calm - N/A   Clear
2:15 AM 52.3 °F 45.0 °F 76% 30.28 in 10.0 mi Calm Calm - N/A   Clear
2:35 AM 52.2 °F 44.2 °F 74% 30.28 in 10.0 mi Calm Calm - N/A   Clear
2:55 AM 49.1 °F 43.7 °F 82% 30.29 in 10.0 mi Calm Calm - N/A   Clear
3:15 AM 50.9 °F 43.3 °F 75% 30.29 in 10.0 mi Calm Calm - N/A   Clear
3:35 AM 50.9 °F 42.6 °F 73% 30.29 in 10.0 mi Calm Calm - N/A   Clear
3:55 AM 50.0 °F 42.6 °F 76% 30.30 in 10.0 mi Calm Calm - N/A   Clear
4:15 AM 47.5 °F 41.7 °F 80% 30.30 in 10.0 mi Calm Calm - N/A   Clear
4:35 AM 47.8 °F 42.4 °F 82% 30.30 in 10.0 mi West 3.5 mph - N/A   Scattered Clouds
4:55 AM 47.1 °F 41.9 °F 82% 30.30 in 10.0 mi WSW 4.6 mph - N/A   Scattered Clouds
5:15 AM 47.8 °F 43.2 °F 84% 30.30 in 10.0 mi WSW 4.6 mph - N/A   Scattered Clouds
5:35 AM 47.3 °F 43.2 °F 86% 30.28 in 10.0 mi WSW 4.6 mph - N/A   Scattered Clouds
5:55 AM 47.5 °F 43.9 °F 87% 30.29 in 10.0 mi WSW 5.8 mph - N/A   Scattered Clouds
6:15 AM 47.1 °F 43.0 °F 86% 30.30 in 10.0 mi Calm Calm - N/A   Scattered Clouds
6:35 AM 45.9 °F 42.1 °F 87% 30.30 in 10.0 mi Calm Calm - N/A   Scattered Clouds
6:55 AM 47.7 °F 43.7 °F 86% 30.30 in 10.0 mi WSW 3.5 mph - N/A   Scattered Clouds
7:15 AM 48.6 °F 44.6 °F 86% 30.30 in 10.0 mi WSW 3.5 mph - N/A   Scattered Clouds
7:35 AM 49.3 °F 44.6 °F 84% 30.30 in 10.0 mi WSW 4.6 mph - N/A   Scattered Clouds
7:55 AM 50.9 °F 44.8 °F 80% 30.30 in 10.0 mi WSW 3.5 mph - N/A   Clear
8:15 AM 52.5 °F 45.9 °F 78% 30.31 in 10.0 mi Calm Calm - N/A   Scattered Clouds
8:35 AM 55.6 °F 44.6 °F 67% 30.30 in 10.0 mi Calm Calm - N/A   Scattered Clouds
8:55 AM 58.6 °F 43.0 °F 56% 30.30 in 10.0 mi South 4.6 mph - N/A   Scattered Clouds
9:15 AM 59.5 °F 45.9 °F 61% 30.31 in 10.0 mi South 5.8 mph - N/A   Clear
9:35 AM 61.9 °F 43.9 °F 52% 30.31 in 10.0 mi South 5.8 mph - N/A   Scattered Clouds
9:55 AM 63.3 °F 44.4 °F 50% 30.30 in 10.0 mi South 6.9 mph - N/A   Clear
10:15 AM 64.6 °F 44.8 °F 49% 30.30 in 10.0 mi SSE 8.1 mph - N/A   Clear
10:35 AM 65.5 °F 44.8 °F 47% 30.30 in 10.0 mi South 10.4 mph - N/A   Clear
10:55 AM 66.7 °F 45.0 °F 45% 30.30 in 10.0 mi South 11.5 mph - N/A   Clear
11:15 AM 67.1 °F 44.1 °F 43% 30.29 in 10.0 mi South 10.4 mph 16.1 mph N/A   Clear
11:35 AM 68.4 °F 43.9 °F 41% 30.28 in 10.0 mi South 12.7 mph 19.6 mph N/A   Clear
11:55 AM 68.7 °F 43.2 °F 40% 30.28 in 10.0 mi SSW 8.1 mph - N/A   Clear
12:15 PM 70.0 °F 43.5 °F 38% 30.28 in 10.0 mi South 9.2 mph - N/A   Scattered Clouds
12:35 PM 70.9 °F 42.8 °F 36% 30.28 in 10.0 mi SW 9.2 mph 18.4 mph N/A   Clear
12:55 PM 70.9 °F 42.4 °F 36% 30.27 in 10.0 mi South 9.2 mph 18.4 mph N/A   Scattered Clouds
1:15 PM 71.4 °F 43.2 °F 36% 30.27 in 10.0 mi SSW 9.2 mph - N/A   Scattered Clouds
1:35 PM 72.5 °F 43.2 °F 35% 30.26 in 10.0 mi SSE 4.6 mph 9.2 mph N/A   Scattered Clouds
1:55 PM 71.2 °F 42.8 °F 36% 30.26 in 10.0 mi SSE 9.2 mph - N/A   Scattered Clouds
2:15 PM 73.9 °F 42.8 °F 33% 30.25 in 10.0 mi SE 11.5 mph 16.1 mph N/A   Scattered Clouds
2:35 PM 73.8 °F 43.2 °F 33% 30.25 in 10.0 mi SSE 6.9 mph 17.3 mph N/A   Scattered Clouds
2:55 PM 74.7 °F 42.6 °F 32% 30.25 in 10.0 mi South 6.9 mph 16.1 mph N/A   Mostly Cloudy
3:15 PM 74.8 °F 42.4 °F 31% 30.24 in 10.0 mi SSE 8.1 mph 17.3 mph N/A   Scattered Clouds
3:35 PM 75.2 °F 42.8 °F 31% 30.23 in 10.0 mi SSE 8.1 mph - N/A   Scattered Clouds
3:55 PM 75.4 °F 41.9 °F 30% 30.23 in 10.0 mi SSE 11.5 mph 16.1 mph N/A   Scattered Clouds
4:15 PM 77.0 °F 41.9 °F 28% 30.22 in 10.0 mi South 9.2 mph 21.9 mph N/A   Clear
4:35 PM 76.6 °F 40.5 °F 27% 30.21 in 10.0 mi SSE 4.6 mph 16.1 mph N/A   Scattered Clouds
5:55 PM 77.0 °F 41.0 °F 28% 30.19 in 10.0 mi South 12.7 mph 20.7 mph N/A   Clear
6:15 PM 75.9 °F 40.1 °F 28% 30.19 in 10.0 mi South 10.4 mph - N/A   Clear
6:35 PM 77.4 °F 41.7 °F 28% 30.18 in 10.0 mi SSE 8.1 mph - N/A   Scattered Clouds
6:55 PM 76.8 °F 41.9 °F 29% 30.18 in 10.0 mi South 11.5 mph 18.4 mph N/A   Scattered Clouds
7:15 PM 76.3 °F 43.0 °F 30% 30.18 in 10.0 mi South 10.4 mph 16.1 mph N/A   Scattered Clouds
7:35 PM 75.6 °F 44.6 °F 33% 30.18 in 10.0 mi ESE 16.1 mph 19.6 mph N/A   Scattered Clouds
7:55 PM 75.0 °F 45.3 °F 35% 30.18 in 10.0 mi SE 13.8 mph - N/A   Scattered Clouds
8:15 PM 73.9 °F 45.9 °F 37% 30.18 in 10.0 mi SE 12.7 mph - N/A   Scattered Clouds
8:35 PM 72.5 °F 46.0 °F 39% 30.18 in 10.0 mi SSE 8.1 mph - N/A   Clear
8:55 PM 71.1 °F 46.6 °F 42% 30.18 in 10.0 mi SE 8.1 mph - N/A   Clear
9:15 PM 68.5 °F 47.3 °F 47% 30.18 in 10.0 mi SE 6.9 mph - N/A   Clear
9:35 PM 65.5 °F 47.7 °F 53% 30.19 in 10.0 mi SE 6.9 mph - N/A   Clear
9:55 PM 64.0 °F 48.4 °F 57% 30.19 in 10.0 mi SE 6.9 mph - N/A   Clear
10:15 PM 63.3 °F 49.1 °F 60% 30.19 in 10.0 mi SE 6.9 mph - N/A   Clear
10:35 PM 62.6 °F 49.3 °F 62% 30.20 in 10.0 mi SSE 8.1 mph - N/A   Clear
10:55 PM 62.4 °F 49.6 °F 63% 30.21 in 10.0 mi SSE 9.2 mph - N/A   Clear
11:15 PM 62.1 °F 50.0 °F 65% 30.21 in 10.0 mi SSE 9.2 mph - N/A   Clear
11:35 PM 62.1 °F 50.4 °F 65% 30.21 in 10.0 mi SSE 10.4 mph - N/A   Clear
11:55 PM 62.6 °F 50.9 °F 66% 30.21 in 10.0 mi SSE 9.2 mph - N/A   Clear